Location: Unspecified
(43.4680°N, 87.1740°E)
Time: 04:31:30
(UTC+00:00)

Cosmos 1825 Rocket - Pass Details

Date: 17 April 2021
Orbit: 605 x 630 km, 82.5° (Epoch: 16 May)

Event Time Altitude Azimuth Distance (km) Brightness Sun altitude
Rises 14:06:03 0° 347° (NNW) 2,887 7.6 -12.5°
Reaches altitude 10° 14:08:18 10° 342° (NNW) 1,981 6.8 -12.8°
Maximum altitude 14:12:34 53° 266° (W) 760 4.3 -13.5°
Drops below altitude 10° 14:16:50 10° 190° (S) 1,981 5.9 -14.2°
Sets 14:19:06 0° 185° (S) 2,886 6.7 -14.5°
